Regional Weather Roundup
Issued by NWS Newport/Morehead, NC

Current Version | Previous Version | Text Only | Print | Product List | Glossary Off
Versions: 1 2 3 4 5 6 7 8 9 10 11 12 13 14 15 16 17 18 19 20 21 22 23 24 25 26 27 28 29 30 31 32 33 34 35 36 37 38 39 40 41 42 43 44 45 46 47 48 49 50
000 ASUS42 KMHX 050413 RWRMHX WEATHER ROUNDUP FOR EASTERN NORTH CAROLINA NATIONAL WEATHER SERVICE NEWPORT/MOREHEAD CITY NC 1200 AM EDT WED AUG 05 2015 NOTE: "FAIR" INDICATES FEW OR NO CLOUDS BELOW 12,000 FEET WITH NO SIGNIFICANT WEATHER AND/OR OBSTRUCTIONS TO VISIBILITY NCZ015>017-031-032-045>047-102-103-050500- NORTH COAST CITY SKY/WX TMP DP RH WIND PRES REMARKS EDENTON N/A 78 75 89 S6 29.97S ELIZABETH CITY MOCLDY 78 75 90 S7 29.97R KITTY HAWK MOCLDY 79 73 83 S8 29.95F MANTEO MOCLDY 78 75 90 S15 29.97F $$ NCZ045>047-081-094-103-104-050500- CENTRAL COAST CITY SKY/WX TMP DP RH WIND PRES REMARKS FRISCO CLOUDY 79 76 90 SW7 29.97F SWANQUARTER N/A 81 N/A N/A SW10 29.91S $$ NCZ095-097-098-100-101-050500- SOUTHERN COAST CITY SKY/WX TMP DP RH WIND PRES REMARKS BEAUFORT CLOUDY 81 79 94 SW16G24 29.96F CEDAR ISLAND N/A 79 N/A N/A S8 30.00S JACKSONVILLE CLEAR 76 74 93 CALM 29.98R PINEY ISLAND CLOUDY N/A N/A N/A SW3 29.96F WILMINGTON MOCLDY 78 76 93 SW3 29.98R $$ NCZ011>013-027>030-043-044-078>080-089-090>093-098-050500- COASTAL PLAIN CITY SKY/WX TMP DP RH WIND PRES REMARKS AHOSKIE CLEAR N/A N/A N/A S3 29.98R CLINTON CLEAR 75 74 98 CALM 29.99R FOG ELIZABETHTOWN CLEAR 77 75 93 CALM 29.99R GOLDSBORO CLEAR 76 74 95 CALM 29.97R GREENVILLE CLEAR 77 73 88 CALM 30.00R HAVELOCK CLOUDY 78 76 93 CALM 29.97S KENANSVILLE CLEAR 72 70 95 CALM 30.00R KINSTON CLEAR 74 73 95 CALM 29.99R NEW BERN CLOUDY 79 75 87 SW3 29.98R RICHLANDS CLEAR 73 68 83 CALM 29.98R ROCKY MOUNT CLEAR 76 72 87 S3 29.98R WASHINGTON PTCLDY 74 73 94 CALM 29.98R WHITEVILLE CLEAR 77 75 92 CALM 29.98S $$ AMZ130-135-150-152-154-156-158-170-250-252-270-ANZ085-086-088-633-658-670-050500- MARINE OBSERVATIONS STATION/POSITION TIME TEMP WIND PRES WAVE SWELL AIR SEA DIR/SP/G HT/PER HT/PER (UTC) (F) (DEG/KT/KT) (MB) (FT/S) (FT/S) CHESAPEAKE LIGHT 0400 78 190/ 22/ 24 1014.4 64 E VA BEACH 0350 81 81 190/ 21/ 25 1014.2 5/ 6 2/11 DUCK 0300 78 62 170/ 12/ 19 1013.9 2 E DUCK 0311 64 N/A 3/ 6 OREGON INLET 0300 79 82 180/ 19/ 25 1015.5 13E OREGON INLT 0400 81 N/A 4/ 5 HATTERAS CG 0300 78 80 190/ 4/ 9 1014.8 DIAMOND BUOY 0350 83 83 220/ 21/ 27 1014.5 5/ 5 2/11 CAPE LOOKOUT 0400 80 210/ 13/ 16 1014.3 BEAUFORT LAB 0300 80 80 210/ 12/ 18 1013.9 30 SE NEW RVR IN 0308 82 81 240/ 16/ 21 1015.3 27 SE WRIGHTSVLE 0300 78 82 260/ 19/ 23 N/A 5 SE WRIGHTSVLE 0308 81 81 250/ 10/ 14 1014.8 225 S CAPE HAT 0350 82 81 220/ 8/ 10 1018.9 6/ 6 5/ 6 41 SE CHARLESTON 0350 83 83 220/ 14/ 17 1015.5 4/ 5 2/ 8 $$

USA.gov is the U.S. government's official web portal to all federal, state and local government web resources and services.